Location: ?
(35.4064°N, 139.3593°E)
Time: 04:34:20
(UTC+00:00)

Intercosmos 25 Rocket - Pass Details

Date: 18 April 2024
Orbit: 434 x 2971 km, 82.6° (Epoch: 23 May)

Event Time Altitude Azimuth Distance (km) Brightness Sun altitude
Rises 17:48:29 0° 358° (N) 2,691 7.3 -25.9°
Reaches altitude 10° 17:50:17 10° 2° (N) 1,938 6.6 -25.6°
Maximum altitude 17:54:23 64° 84° (E) 859 4.3 -24.9°
Drops below altitude 10° 18:00:57 10° 166° (SSE) 3,065 6.9 -23.8°
Sets 18:04:25 0° 169° (S) 4,434 7.7 -23.2°
